Find Palapa B4

NORAD ID: 21964 Int'l Des: 1992-027 Owner: TELK Country: ID operational
HEOCIRCULAR

Live-Position

3D-Globus wird geladen...

Über Palapa B4

Beschreibung wird geladen...

Nächste Überflüge

Passes for default location (London). Set your location on the main map for personalized predictions.

Höhenverlauf

Loading altitude history...

Zweizeiliger Elementsatz

1 21964U 92027A 26106.85489213 -.00000311 00000-0 00000+0 0 9992
2 21964 13.1791 17.7424 0003526 355.2550 248.8409 0.99936338 46579
Epoch: 16. Apr. 2026 • Age: 23 hours

Aktueller Status

Höhe 35890.4 km
Geschwindigkeit 3.07 km/s
Subsatellitenpunkt -10.71°S, 107.15°E
Startdatum 14. Mai 1992
Alter 33.9 years
Typ other

Technische Details

Klassifizierung Payload
Masse 713.00 kg
Trockenmasse 550.00 kg
Gesamtmasse 1256.00 kg
Länge 7.00 m
Durchmesser 2.20 m
Spannweite 7.00 m
Form Cyl
Hersteller HSES
Bus-Typ HS-376
Phasenstatus In Orbit
Besitzer/Staat TELK/ID

Most Searched